| time (UTC) | temp C | wind direction | speed KPH | gust KPH | rain 1hr cm | rain 24hr cm | rain mn cm | humidity % | barometer mb |
| 20260507000036 | 15 | 202 | 0.0 | 6.4 | 0.00 | 0.43 | 0.38 | 94 | 1003.3 |
| 20260506234535 | 15 | 201 | 0.0 | 0.0 | 0.00 | 0.43 | 0.38 | 94 | 1003.0 |
| 20260506233040 | 15 | 201 | 0.0 | 9.7 | 0.03 | 0.43 | 0.38 | 94 | 1002.9 |
| 20260506231534 | 15 | 217 | 0.0 | 6.4 | 0.03 | 0.43 | 0.38 | 94 | 1003.1 |
| 20260506230034 | 15 | 230 | 1.6 | 9.7 | 0.03 | 0.43 | 0.38 | 93 | 1003.1 |
| 20260506224533 | 15 | 248 | 0.0 | 12.9 | 0.03 | 0.43 | 0.38 | 93 | 1003.2 |
| 20260506223032 | 15 | 221 | 1.6 | 24.1 | 0.00 | 0.41 | 0.36 | 92 | 1003.2 |
| 20260506221532 | 15 | 179 | 9.7 | 19.3 | 0.00 | 0.41 | 0.36 | 92 | 1003.2 |
| 20260506220033 | 15 | 207 | 11.3 | 30.6 | 0.00 | 0.41 | 0.36 | 93 | 1003.3 |
| 20260506214531 | 16 | 165 | 8.0 | 17.7 | 0.03 | 0.41 | 0.36 | 94 | 1003.2 |
| 20260506213029 | 16 | 179 | 3.2 | 14.5 | 0.03 | 0.41 | 0.36 | 95 | 1003.0 |
| 20260506211526 | 16 | 182 | 1.6 | 11.3 | 0.03 | 0.41 | 0.36 | 95 | 1003.5 |
| 20260506210026 | 16 | 171 | 4.8 | 14.5 | 0.03 | 0.41 | 0.36 | 95 | 1003.5 |
| 20260506204525 | 16 | 195 | 1.6 | 12.9 | 0.05 | 0.38 | 0.33 | 95 | 1003.5 |
| 20260506203024 | 16 | 227 | 0.0 | 12.9 | 0.10 | 0.38 | 0.33 | 95 | 1003.6 |
| 20260506201524 | 16 | 170 | 3.2 | 12.9 | 0.13 | 0.38 | 0.33 | 95 | 1003.6 |
| 20260506200022 | 16 | 166 | 6.4 | 16.1 | 0.13 | 0.38 | 0.33 | 95 | 1003.7 |
| 20260506194520 | 16 | 165 | 3.2 | 11.3 | 0.10 | 0.33 | 0.28 | 95 | 1003.9 |
| 20260506193019 | 16 | 181 | 0.0 | 6.4 | 0.08 | 0.28 | 0.23 | 94 | 1004.1 |
| 20260506191519 | 16 | 181 | 0.0 | 6.4 | 0.08 | 0.25 | 0.20 | 94 | 1004.0 |
| 20260506190018 | 16 | 181 | 0.0 | 0.0 | 0.10 | 0.25 | 0.20 | 93 | 1004.0 |
| 20260506184514 | 16 | 182 | 1.6 | 9.7 | 0.10 | 0.23 | 0.18 | 93 | 1004.6 |
| 20260506183011 | 16 | 202 | 0.0 | 6.4 | 0.10 | 0.20 | 0.15 | 92 | 1005.0 |
| 20260506181510 | 16 | 187 | 1.6 | 9.7 | 0.10 | 0.18 | 0.13 | 91 | 1005.1 |
| 20260506180010 | 16 | 182 | 1.6 | 12.9 | 0.08 | 0.15 | 0.10 | 89 | 1005.3 |
| 20260506174509 | 16 | 227 | 3.2 | 16.1 | 0.05 | 0.13 | 0.08 | 87 | 1005.6 |
| 20260506173008 | 17 | 227 | 6.4 | 19.3 | 0.03 | 0.10 | 0.05 | 84 | 1005.6 |
| 20260506171508 | 18 | 221 | 11.3 | 24.1 | 0.00 | 0.08 | 0.03 | 80 | 1005.4 |
| 20260506170008 | 18 | 220 | 4.8 | 14.5 | 0.00 | 0.08 | 0.03 | 76 | 1005.3 |
| 20260506164506 | 19 | 187 | 3.2 | 20.9 | 0.00 | 0.08 | 0.03 | 74 | 1005.1 |
| 20260506163012 | 19 | 225 | 4.8 | 22.5 | 0.00 | 0.08 | 0.03 | 74 | 1005.3 |
| 20260506161503 | 19 | 198 | 14.5 | 25.7 | 0.00 | 0.08 | 0.03 | 71 | 1005.6 |
| 20260506160109 | 19 | 232 | 4.8 | 20.9 | 0.00 | 0.08 | 0.03 | 75 | 1005.8 |
| 20260506154557 | 19 | 204 | 1.6 | 12.9 | 0.00 | 0.08 | 0.03 | 76 | 1006.1 |
| 20260506153055 | 18 | 222 | 1.6 | 14.5 | 0.00 | 0.08 | 0.03 | 75 | 1006.5 |
| 20260506151554 | 18 | 225 | 0.0 | 11.3 | 0.00 | 0.08 | 0.03 | 76 | 1006.6 |
| 20260506150055 | 18 | 232 | 3.2 | 19.3 | 0.00 | 0.08 | 0.03 | 75 | 1006.6 |
| 20260506144553 | 18 | 231 | 0.0 | 11.3 | 0.00 | 0.08 | 0.03 | 76 | 1006.4 |
| 20260506143052 | 18 | 248 | 3.2 | 12.9 | 0.00 | 0.08 | 0.03 | 76 | 1006.6 |
| 20260506141549 | 18 | 223 | 3.2 | 14.5 | 0.00 | 0.08 | 0.03 | 78 | 1006.4 |
| 20260506140048 | 17 | 227 | 1.6 | 14.5 | 0.00 | 0.08 | 0.03 | 81 | 1006.5 |
| 20260506134609 | 17 | 244 | 0.0 | 11.3 | 0.00 | 0.08 | 0.03 | 82 | 1006.4 |
| 20260506133038 | 16 | 250 | 0.0 | 16.1 | 0.00 | 0.08 | 0.03 | 83 | 1006.8 |
| 20260506131534 | 16 | 234 | 0.0 | 12.9 | 0.00 | 0.08 | 0.03 | 85 | 1007.0 |
| 20260506130032 | 16 | 243 | 0.0 | 0.0 | 0.00 | 0.08 | 0.03 | 85 | 1006.9 |
| 20260506124529 | 15 | 243 | 0.0 | 0.0 | 0.00 | 0.08 | 0.03 | 87 | 1007.0 |
| 20260506123026 | 15 | 243 | 0.0 | 0.0 | 0.00 | 0.08 | 0.03 | 88 | 1006.9 |
| 20260506121522 | 14 | 243 | 0.0 | 0.0 | 0.00 | 0.08 | 0.03 | 89 | 1006.9 |
| 20260506120019 | 13 | 243 | 0.0 | 4.8 | 0.00 | 0.08 | 0.03 | 91 | 1007.1 |
| 20260506114526 | 13 | 243 | 0.0 | 4.8 | 0.00 | 0.08 | 0.03 | 92 | 1007.3 |
| 20260506113015 | 13 | 243 | 0.0 | 4.8 | 0.00 | 0.08 | 0.03 | 94 | 1007.4 |
| 20260506111514 | 12 | 243 | 0.0 | 0.0 | 0.00 | 0.08 | 0.03 | 95 | 1007.3 |
| 20260506110016 | 12 | 244 | 0.0 | 0.0 | 0.00 | 0.08 | 0.03 | 95 | 1007.4 |
| 20260506104509 | 12 | 244 | 0.0 | 0.0 | 0.00 | 0.08 | 0.03 | 95 | 1007.3 |
| 20260506103019 | 11 | 244 | 0.0 | 0.0 | 0.00 | 0.08 | 0.03 | 94 | 1007.5 |
| 20260506101507 | 11 | 244 | 0.0 | 1.6 | 0.00 | 0.08 | 0.03 | 94 | 1007.4 |
| 20260506100005 | 11 | 244 | 0.0 | 0.0 | 0.00 | 0.08 | 0.03 | 93 | 1007.3 |
| 20260506094503 | 11 | 244 | 0.0 | 1.6 | 0.00 | 0.08 | 0.03 | 94 | 1007.1 |
| 20260506093001 | 11 | 244 | 3.2 | 8.0 | 0.00 | 0.08 | 0.03 | 95 | 1007.3 |
| 20260506091601 | 11 | 244 | 0.0 | 4.8 | 0.00 | 0.08 | 0.03 | 94 | 1007.3 |
| 20260506090059 | 11 | 244 | 0.0 | 0.0 | 0.00 | 0.08 | 0.03 | 94 | 1007.2 |
| 20260506084605 | 11 | 244 | 0.0 | 6.4 | 0.00 | 0.08 | 0.03 | 94 | 1007.2 |
| 20260506083115 | 12 | 244 | 0.0 | 8.0 | 0.00 | 0.08 | 0.03 | 94 | 1007.2 |
| 20260506081554 | 12 | 244 | 0.0 | 0.0 | 0.00 | 0.08 | 0.03 | 94 | 1007.5 |
| 20260506073049 | 12 | 244 | 0.0 | 0.0 | 0.00 | 0.08 | 0.03 | 93 | 1007.4 |
| 20260506071552 | 12 | 244 | 0.0 | 0.0 | 0.00 | 0.08 | 0.03 | 93 | 1007.3 |
| 20260506061544 | 13 | 244 | 0.0 | 0.0 | 0.00 | 0.08 | 0.03 | 91 | 1007.0 |
| 20260506044539 | 13 | 252 | 0.0 | 0.0 | 0.03 | 0.08 | 0.03 | 94 | 1007.2 |
| 20260506043036 | 13 | 252 | 0.0 | 0.0 | 0.00 | 0.05 | 0.00 | 94 | 1007.2 |
| 20260506041538 | 13 | 252 | 0.0 | 0.0 | 0.00 | 0.05 | 0.00 | 94 | 1007.3 |
| 20260506040032 | 13 | 252 | 0.0 | 0.0 | 0.00 | 0.05 | 0.05 | 94 | 1007.1 |
| 20260506034531 | 14 | 252 | 0.0 | 0.0 | 0.00 | 0.05 | 0.05 | 94 | 1007.1 |
| 20260506033030 | 14 | 252 | 0.0 | 0.0 | 0.00 | 0.05 | 0.05 | 93 | 1007.1 |
| 20260506031537 | 14 | 252 | 0.0 | 0.0 | 0.00 | 0.05 | 0.05 | 93 | 1006.9 |
| 20260506030030 | 14 | 252 | 0.0 | 1.6 | 0.00 | 0.05 | 0.05 | 93 | 1007.1 |
| 20260506024538 | 14 | 252 | 0.0 | 0.0 | 0.00 | 0.05 | 0.05 | 92 | 1006.9 |
| 20260506023029 | 15 | 252 | 0.0 | 0.0 | 0.00 | 0.05 | 0.05 | 92 | 1006.7 |
| 20260506021528 | 15 | 252 | 0.0 | 0.0 | 0.00 | 0.05 | 0.05 | 91 | 1006.9 |
| 20260506020028 | 15 | 252 | 0.0 | 0.0 | 0.00 | 0.05 | 0.05 | 91 | 1006.9 |
| 20260506014527 | 15 | 252 | 0.0 | 0.0 | 0.00 | 0.05 | 0.05 | 90 | 1006.7 |
| 20260506013030 | 16 | 252 | 0.0 | 0.0 | 0.00 | 0.05 | 0.05 | 89 | 1007.2 |
| 20260506011556 | 16 | 252 | 0.0 | 0.0 | 0.00 | 0.05 | 0.05 | 88 | 1007.1 |
| 20260506010025 | 16 | 252 | 0.0 | 0.0 | 0.05 | 0.05 | 0.05 | 87 | 1007.0 |
| 20260506004524 | 17 | 252 | 0.0 | 0.0 | 0.05 | 0.05 | 0.05 | 85 | 1006.8 |
| 20260506003024 | 18 | 252 | 0.0 | 0.0 | 0.05 | 0.05 | 0.05 | 81 | 1006.5 |
| 20260506001523 | 19 | 252 | 0.0 | 8.0 | 0.05 | 0.05 | 0.05 | 74 | 1006.3 |